Liberal, KS

9:00 PM CDT on July 23, 2017 (GMT -0500)
Liberal Municipal

Weather History for KLBL - May, 2014

Change the Weather History Date:

Saturday, May 3, 2014

  Actual Average Record
Temperature  
Mean Temperature 68 °F -  
Max Temperature 91 °F 72 °F 96 °F (1950)
Min Temperature 46 °F 45 °F 26 °F (2013)
Cooling Degree Days 4    
Growing Degree Days 18 (Base 50)    
Moisture  
Dew Point 28 °F    
Average Humidity 23    
Maximum Humidity 46    
Minimum Humidity 10    
Precipitation  
Precipitation 0.00 in - - ()
Sea Level Pressure  
Sea Level Pressure 29.91 in    
Wind  
Wind Speed 10 mph (SW)    
Max Wind Speed 20 mph    
Max Gust Speed 25 mph    
Visibility 10 miles    
Events      
Averages and records for this station are not official NWS values.
T = Trace of Precipitation, MM = Missing Value Source: NWS Daily Summary

Daily Weather History Graph

Daily Weather History Graph

Search for Another Location

Airport or City:

Trip Planner

Search our weather history database for the weather conditions in past years. The results will help you decide how hot, cold, wet, or windy it might be!

Date:

Astronomy

May. 03, 2014 Rise Set
Actual Time 6:47 AM CDT 8:34 PM CDT
Civil Twilight 6:19 AM CDT 9:02 PM CDT
Nautical Twilight 5:45 AM CDT 9:36 PM CDT
Astronomical Twilight 5:09 AM CDT 10:13 PM CDT
Moon 10:19 AM CDT (5/3) No Moon Set
Length of Visible Light 14h 43m
Length of Day
13h 47m
Waxing Crescent, 20% of the Moon is Illuminated
May 3
Waxing Crescent
May 6
First Quarter
May 14
Full
May 21
Last Quarter
May 28
New

Hourly Weather History & Observations

Time (CDT) Temp. Windchill Dew Point Humidity Pressure Visibility Wind Dir Wind Speed Gust Speed Precip Events Conditions
12:15 AM 57.2 °F - 24.8 °F 29% 29.95 in 10.0 mi SSW 10.4 mph - N/A   Clear
12:35 AM 55.4 °F - 24.8 °F 31% 29.95 in 10.0 mi SW 10.4 mph - N/A   Clear
12:55 AM 53.6 °F - 24.8 °F 33% 29.95 in 10.0 mi SW 10.4 mph - N/A   Clear
1:15 AM 53.6 °F - 24.8 °F 33% 29.95 in 10.0 mi SSW 12.7 mph - N/A   Clear
1:35 AM 55.4 °F - 24.8 °F 31% 29.95 in 10.0 mi SSW 12.7 mph - N/A   Clear
1:55 AM 55.4 °F - 24.8 °F 31% 29.95 in 10.0 mi SSW 11.5 mph - N/A   Clear
2:15 AM 57.2 °F - 24.8 °F 29% 29.95 in 10.0 mi SW 10.4 mph - N/A   Clear
2:35 AM 57.2 °F - 24.8 °F 29% 29.95 in 10.0 mi SW 10.4 mph - N/A   Clear
2:55 AM 55.4 °F - 24.8 °F 31% 29.95 in 10.0 mi SW 9.2 mph - N/A   Clear
3:15 AM 55.4 °F - 24.8 °F 31% 29.95 in 10.0 mi SW 9.2 mph - N/A   Clear
3:35 AM 53.6 °F - 24.8 °F 33% 29.95 in 10.0 mi SW 9.2 mph - N/A   Clear
3:55 AM 51.8 °F - 24.8 °F 35% 29.95 in 10.0 mi SW 10.4 mph - N/A   Clear
4:15 AM 50.0 °F - 24.8 °F 37% 29.95 in 10.0 mi SW 8.1 mph - N/A   Clear
4:35 AM 48.2 °F - 24.8 °F 40% 29.95 in 10.0 mi SW 9.2 mph - N/A   Clear
5:15 AM 46.4 °F 41.9 °F 24.8 °F 43% 29.95 in 10.0 mi SW 9.2 mph - N/A   Clear
5:35 AM 46.4 °F 41.9 °F 26.6 °F 46% 29.94 in 10.0 mi SW 9.2 mph - N/A   Clear
5:55 AM 46.4 °F 41.5 °F 26.6 °F 46% 29.94 in 10.0 mi WSW 10.4 mph - N/A   Clear
6:15 AM 46.4 °F 41.5 °F 26.6 °F 46% 29.94 in 10.0 mi WSW 10.4 mph - N/A   Clear
6:35 AM 46.4 °F 42.9 °F 26.6 °F 46% 29.95 in 10.0 mi WSW 6.9 mph - N/A   Clear
6:55 AM 46.4 °F 42.9 °F 26.6 °F 46% 29.95 in 10.0 mi WSW 6.9 mph - N/A   Clear
7:15 AM 46.4 °F 42.9 °F 26.6 °F 46% 29.95 in 10.0 mi WSW 6.9 mph - N/A   Clear
7:35 AM 48.2 °F - 26.6 °F 43% 29.95 in 10.0 mi SW 9.2 mph - N/A   Clear
7:55 AM 53.6 °F - 28.4 °F 38% 29.95 in 10.0 mi SW 9.2 mph - N/A   Clear
8:15 AM 55.4 °F - 28.4 °F 36% 29.96 in 10.0 mi WSW 10.4 mph - N/A   Clear
8:35 AM 57.2 °F - 28.4 °F 33% 29.96 in 10.0 mi WSW 9.2 mph - N/A   Clear
8:55 AM 62.6 °F - 30.2 °F 30% 29.96 in 10.0 mi WSW 9.2 mph - N/A   Clear
9:15 AM 64.4 °F - 30.2 °F 28% 29.96 in 10.0 mi SW 9.2 mph - N/A   Clear
9:35 AM 68.0 °F - 30.2 °F 24% 29.96 in 10.0 mi SW 11.5 mph - N/A   Clear
9:55 AM 71.6 °F - 30.2 °F 22% 29.96 in 10.0 mi SW 11.5 mph - N/A   Clear
10:15 AM 73.4 °F - 30.2 °F 20% 29.96 in 10.0 mi SW 13.8 mph - N/A   Clear
10:35 AM 77.0 °F - 30.2 °F 18% 29.96 in 10.0 mi SW 13.8 mph - N/A   Clear
10:55 AM 80.6 °F - 30.2 °F 16% 29.96 in 10.0 mi SSW 18.4 mph - N/A   Clear
11:15 AM 82.4 °F - 30.2 °F 15% 29.96 in 10.0 mi SW 16.1 mph - N/A   Clear
11:35 AM 82.4 °F - 30.2 °F 15% 29.96 in 10.0 mi SW 13.8 mph - N/A   Clear
11:55 AM 84.2 °F - 30.2 °F 14% 29.96 in 10.0 mi SSW 17.3 mph 21.9 mph N/A   Clear
12:15 PM 86.0 °F - 30.2 °F 13% 29.96 in 10.0 mi SSW 18.4 mph 24.2 mph N/A   Clear
12:35 PM 86.0 °F - 28.4 °F 12% 29.96 in 10.0 mi SSW 16.1 mph 23.0 mph N/A   Clear
12:55 PM 87.8 °F - 28.4 °F 12% 29.95 in 10.0 mi SW 19.6 mph - N/A   Clear
1:15 PM 87.8 °F - 30.2 °F 13% 29.94 in 10.0 mi SSW 17.3 mph 23.0 mph N/A   Clear
1:35 PM 87.8 °F - 28.4 °F 12% 29.93 in 10.0 mi South 16.1 mph 23.0 mph N/A   Clear
1:55 PM 89.6 °F - 28.4 °F 11% 29.92 in 10.0 mi SW 12.7 mph 19.6 mph N/A   Clear
2:15 PM 89.6 °F - 28.4 °F 11% 29.92 in 10.0 mi South 17.3 mph 25.3 mph N/A   Clear
2:35 PM 89.6 °F - 28.4 °F 11% 29.91 in 10.0 mi South 11.5 mph 24.2 mph N/A   Clear
3:15 PM 89.6 °F - 30.2 °F 12% 29.90 in 10.0 mi South 11.5 mph 24.2 mph N/A   Clear
3:35 PM 91.4 °F - 30.2 °F 11% 29.89 in 10.0 mi SW 10.4 mph 23.0 mph N/A   Clear
3:55 PM 91.4 °F - 28.4 °F 10% 29.88 in 10.0 mi SSW 13.8 mph 20.7 mph N/A   Clear
4:15 PM 91.4 °F - 28.4 °F 10% 29.87 in 10.0 mi South 15.0 mph 21.9 mph N/A   Clear
4:35 PM 91.4 °F - 30.2 °F 11% 29.86 in 10.0 mi South 9.2 mph 17.3 mph N/A   Clear
4:55 PM 91.4 °F - 30.2 °F 11% 29.86 in 10.0 mi SSW 11.5 mph 16.1 mph N/A   Clear
5:15 PM 91.4 °F - 30.2 °F 11% 29.86 in 10.0 mi SW 15.0 mph - N/A   Clear
5:35 PM 91.4 °F - 28.4 °F 10% 29.86 in 10.0 mi SW 13.8 mph 20.7 mph N/A   Clear
5:55 PM 89.6 °F - 28.4 °F 11% 29.85 in 10.0 mi West 15.0 mph 19.6 mph N/A   Clear
6:15 PM 89.6 °F - 28.4 °F 11% 29.85 in 10.0 mi SW 12.7 mph - N/A   Clear
6:35 PM 89.6 °F - 28.4 °F 11% 29.85 in 10.0 mi West 6.9 mph - N/A   Clear
6:55 PM 89.6 °F - 28.4 °F 11% 29.85 in 10.0 mi West 12.7 mph - N/A   Clear
7:15 PM 87.8 °F - 26.6 °F 11% 29.85 in 10.0 mi West 4.6 mph - N/A   Clear
7:35 PM 84.2 °F - 26.6 °F 12% 29.85 in 10.0 mi WNW 3.5 mph - N/A   Clear
7:55 PM 82.4 °F - 24.8 °F 12% 29.85 in 10.0 mi Calm Calm - N/A   Clear
8:15 PM 82.4 °F - 26.6 °F 13% 29.85 in 10.0 mi Calm Calm - N/A   Clear
8:35 PM 82.4 °F - 26.6 °F 13% 29.85 in 10.0 mi Calm Calm - N/A   Clear
8:55 PM 78.8 °F - 26.6 °F 15% 29.85 in 10.0 mi East 3.5 mph - N/A   Clear
9:15 PM 75.2 °F - 28.4 °F 18% 29.85 in 10.0 mi ENE 3.5 mph - N/A   Clear
9:35 PM 75.2 °F - 28.4 °F 18% 29.85 in 10.0 mi East 3.5 mph - N/A   Clear
9:55 PM 71.6 °F - 28.4 °F 20% 29.85 in 10.0 mi Calm Calm - N/A   Clear
10:15 PM 69.8 °F - 30.2 °F 23% 29.86 in 10.0 mi SE 3.5 mph - N/A   Clear
10:35 PM 69.8 °F - 28.4 °F 21% 29.86 in 10.0 mi ESE 4.6 mph - N/A   Clear
10:55 PM 69.8 °F - 30.2 °F 23% 29.86 in 10.0 mi ESE 3.5 mph - N/A   Clear
11:15 PM 64.4 °F - 26.6 °F 24% 29.86 in 10.0 mi East 5.8 mph - N/A   Clear
11:35 PM 66.2 °F - 28.4 °F 24% 29.86 in 10.0 mi SE 8.1 mph - N/A   Clear
11:55 PM 62.6 °F - 24.8 °F 24% 29.85 in 10.0 mi SE 6.9 mph - N/A   Clear